Tucson Davis Monthan, AZ

2:09 PM MST on May 29, 2017 (GMT -0700)
Davis-Monthan Air Force Base

Weather History for KDMA - August, 2014

Change the Weather History Date:

Saturday, August 9, 2014

  Actual Average Record
Temperature  
Mean Temperature 86 °F -  
Max Temperature 95 °F 97 °F 106 °F (1993)
Min Temperature 76 °F 72 °F 66 °F (1998)
Cooling Degree Days 20    
Growing Degree Days 36 (Base 50)    
Moisture  
Dew Point 59 °F    
Average Humidity 44    
Maximum Humidity 64    
Minimum Humidity 25    
Precipitation  
Precipitation 0.00 in - - ()
Sea Level Pressure  
Sea Level Pressure 29.88 in    
Wind  
Wind Speed 9 mph (WSW)    
Max Wind Speed 25 mph    
Max Gust Speed 24 mph    
Visibility 10 miles    
Events      
Averages and records for this station are not official NWS values.
T = Trace of Precipitation, MM = Missing Value Source: NWS Daily Summary

Daily Weather History Graph

Daily Weather History Graph

Search for Another Location

Airport or City:

Trip Planner

Search our weather history database for the weather conditions in past years. The results will help you decide how hot, cold, wet, or windy it might be!

Date:

Astronomy

Aug. 09, 2014 Rise Set
Actual Time 5:43 AM MST 7:13 PM MST
Civil Twilight 5:17 AM MST 7:39 PM MST
Nautical Twilight 4:46 AM MST 8:10 PM MST
Astronomical Twilight 4:13 AM MST 8:43 PM MST
Moon 6:19 PM MST (8/9) 4:28 AM MST (8/9)
Length of Visible Light 14h 22m
Length of Day
13h 29m
Waxing Gibbous, 99% of the Moon is Illuminated
Aug 9
Waxing Gibbous
Aug 10
Full
Aug 17
Last Quarter
Aug 25
New
Sep 2
First Quarter

Hourly Weather History & Observations

Time (MST) Temp. Heat Index Dew Point Humidity Pressure Visibility Wind Dir Wind Speed Gust Speed Precip Events Conditions
12:58 AM 78.8 °F - 61.9 °F 56% 29.86 in 10.0 mi South 9.2 mph - N/A   Partly Cloudy
1:58 AM 78.6 °F - 63.0 °F 59% 29.86 in 10.0 mi SSE 5.8 mph - N/A   Mostly Cloudy
2:58 AM 78.3 °F - 63.1 °F 60% 29.85 in 10.0 mi SE 4.6 mph - N/A   Mostly Cloudy
3:58 AM 77.4 °F - 63.7 °F 63% 29.86 in 10.0 mi SE 4.6 mph - N/A   Scattered Clouds
4:58 AM 76.6 °F - 63.3 °F 63% 29.87 in 10.0 mi SSE 5.8 mph - N/A   Mostly Cloudy
5:58 AM 76.1 °F - 63.3 °F 64% 29.89 in 10.0 mi SSE 2.3 mph - N/A   Mostly Cloudy
6:58 AM 77.2 °F - 63.5 °F 63% 29.92 in 10.0 mi Calm Calm - N/A   Clear
7:58 AM 81.0 °F 82.5 °F 63.9 °F 56% 29.93 in 10.0 mi Calm Calm - N/A   Partly Cloudy
8:58 AM 82.6 °F 83.2 °F 61.7 °F 49% 29.93 in 10.0 mi West 5.8 mph - N/A   Clear
9:58 AM 85.3 °F 85.0 °F 59.5 °F 42% 29.92 in 10.0 mi WNW 10.4 mph - N/A   Clear
10:58 AM 87.6 °F 86.5 °F 57.9 °F 36% 29.92 in 10.0 mi WNW 8.1 mph - N/A   Clear
11:58 AM 90.0 °F 88.6 °F 56.8 °F 33% 29.90 in 10.0 mi NW 12.7 mph 18.4 mph N/A   Partly Cloudy
12:58 PM 91.6 °F 90.1 °F 57.4 °F 31% 29.86 in 10.0 mi Variable 6.9 mph 17.3 mph N/A   Clear
1:58 PM 93.9 °F 92.9 °F 57.7 °F 30% 29.84 in 10.0 mi NW 9.2 mph 18.4 mph N/A   Clear
2:15 PM 95.0 °F 93.7 °F 57.2 °F 28% 29.97 in 10.0 mi West 11.5 mph - N/A   Clear
2:58 PM 95.4 °F 93.8 °F 56.8 °F 27% 29.80 in 10.0 mi WNW 13.8 mph 19.6 mph N/A   Clear
3:58 PM 95.4 °F 93.8 °F 56.1 °F 27% 29.78 in 10.0 mi NW 13.8 mph - N/A   Clear
4:17 PM 95.0 °F 93.0 °F 55.4 °F 26% 29.92 in 10.0 mi NW 15.0 mph 20.7 mph N/A   Clear
4:58 PM 95.4 °F 93.2 °F 54.0 °F 25% 29.77 in 10.0 mi NW 16.1 mph 24.2 mph N/A   Clear
5:58 PM 93.7 °F 91.2 °F 53.4 °F 25% 29.78 in 10.0 mi NW 17.3 mph - N/A   Clear
6:58 PM 91.8 °F - 51.8 °F 26% 29.82 in 10.0 mi WNW 13.8 mph - N/A   Clear
7:58 PM 82.6 °F 83.1 °F 60.8 °F 48% 29.85 in 10.0 mi South 16.1 mph - N/A   Clear
8:58 PM 82.2 °F 82.3 °F 58.6 °F 45% 29.91 in 10.0 mi SSE 15.0 mph - N/A   Partly Cloudy
9:58 PM 81.0 °F 81.3 °F 59.2 °F 47% 29.93 in 10.0 mi SE 12.7 mph - N/A   Partly Cloudy
10:58 PM 77.9 °F - 60.6 °F 55% 29.94 in 10.0 mi ESE 25.3 mph - N/A   Scattered Clouds
11:58 PM 77.0 °F - 60.1 °F 56% 29.94 in 10.0 mi ESE 13.8 mph - N/A   Clear